Retour au catalogue

STARLINK-2543

ActifCommunicationsVLEO
NORAD 48278·PAYLOAD·🇺🇸 United States

Lancé Apr 29, 2021 depuis Cape Canaveral Space Force Station

Loading…

Prochains Passages (prochaines 24 heures)

TLE

FraisSource: CelesTrak SupGP

Époque: Sep 15, 2026, 02:16 UTC

1 48278C 21036C   26258.09493056 -.00020253  00000+0 -65139-3 0  2588
2 48278  53.1570 222.9429 0001293  93.7175  69.9210 15.31706422    18

Suivez STARLINK-2543 en temps réel avec AllMySat

Download on the App Store